Showing default

GJZ 05, 62294

Orbit data source: Space-Track

GJZ 05, 62294 is a payload satellite owned by CASC (CN) in LEO that was launched on Thu, 12 Dec 2024 UTC via a CHANG ZHENG 2D/YZ-3 launch vehicle from the Jiuquan Satellite Launch Center, China (JSC). Payload-class satellites include a variety of spacecraft equipped with specific instruments for various scientific and technological missions. These include communications satellites like Starlink; space stations such as the ISS; scientific satellites like the Hubble; Earth observation satellites from companies like Planet Labs, Umbra, and HawkEye 360; GPS; miniature CubeSats for education and research; and military/defense satellites.

Loading next visibility...
Identifier
62294, 2024-238E
Orbit
LEO
Country
Flag of CNCN / PRC
Related business
Manufacturer
HITSAT
Mission
Operational Civil Communications
Bus & Motor
HARBFLAT, Unknown motor
Mass
~150 kg wet, ~150 kg dry
Launch date (UTC)
2024-12-12 (11 months ago)
Launch vehicle
CHANG ZHENG 2D/YZ-3
Launch site
Jiuquan Satellite Launch Center, China (JSC)
Object type
Payload
Rocket body
Debris
Shape & HBR
Box + 2 Pan, 1.5 m
Radar Cross Section
0.240 m², Large (>1 m²)

Expand to show TLE details & history
Last TLE update: 12 hours ago

TLE from 12 hours ago
0 GJZ 05
1 62294U 24238E   25305.63042334 -.00000005  00000-0  11845-3 0  9990
2 62294  59.9116 239.7474 0019896 145.8146 214.4147 13.75161894 44617
Epoch: 2025-11-01T15:07Z
TLE epoch observation values (Epoch: 2025-11-01T15:07:48.576Z)
Latitude
-0.00003°
Longitude
-28.36276°
Altitude
994.671 km
Speed
7.349 km/s
True Right ascension
15h 58m 59s
True Declination
0° 00' 00"
Sunlit
Object was in daylight at epoch
Visualization orbit readout
Latitude
Unknown
Longitude
Unknown
Altitude
Unknown
Speed
Unknown
Apparent Right ascension
Unknown
Apparent Declination
Unknown
Sunlit
N/A
Visualization observer readout
Local Sidereal Time
23:23:02
Azimuth
Unknown
Elevation
Unknown
Doppler factor
Unknown
Orbital elements
Apogee altitude
995.006 km
Perigee altitude
965.725 km
Semi-major axis
7,358.503 km
Eccentricity
0.00199
Inclination
59.9116°
RAAN
239.7474°
Arg. of periapsis
145.8146°
True anomaly
214.28611°
Mean anomaly
214.4147°
Eccentric anomaly
214.35038°
Mean motion
3.43842 °/min
Orbital period
104.7 mins
BSTAR
0.00011845
Loading maneuver chart data...
Computing Atmospheric mass density...
Loading historical data...
Loading historical data...
Loading historical data...
Loading historical data...
Loading historical data...
Loading historical data...
Loading historical data...
Other satellites on launch #238 in the year 2024 (2024-12-12 UTC)

Documentation

Showing up to 5 results
|